Time,TemperatureF,DewpointF,PressureIn,WindDirection,WindDirectionDegrees,WindSpeedMPH,WindSpeedGustMPH,Humidity,HourlyPrecipIn,Conditions,Clouds,dailyrainin,SoftwareType,DateUTC
2013-09-16 00:43:00,57.0,37.0,-100.00,NNW,330,7.0,13.0,47,-99.99,,,-99.99,,2013-09-16 07:43:00,
2013-09-16 01:42:00,56.0,39.0,-100.00,NW,305,5.0,10.0,53,-99.99,,,-99.99,,2013-09-16 08:42:00,
2013-09-16 02:43:00,56.0,40.0,-100.00,NW,320,6.0,14.0,55,-99.99,,,-99.99,,2013-09-16 09:43:00,
2013-09-16 03:42:00,56.0,40.0,-100.00,WNW,290,6.0,12.0,56,-99.99,,,-99.99,,2013-09-16 10:42:00,
2013-09-16 04:42:00,55.0,41.0,-100.00,WNW,300,9.0,15.0,59,-99.99,,,-99.99,,2013-09-16 11:42:00,
2013-09-16 04:52:00,55.0,41.0,-100.00,WNW,290,5.0,14.0,59,-99.99,,,-99.99,,2013-09-16 11:52:00,
2013-09-16 05:01:00,55.0,41.0,-100.00,WNW,290,5.0,14.0,59,-99.99,,,-99.99,,2013-09-16 12:01:00,
2013-09-16 05:42:00,54.0,41.0,-100.00,NW,325,6.0,14.0,61,-99.99,,,-99.99,,2013-09-16 12:42:00,
2013-09-16 05:52:00,54.0,41.0,-100.00,WNW,295,6.0,12.0,62,-99.99,,,-99.99,,2013-09-16 12:52:00,
2013-09-16 06:11:00,54.0,42.0,-100.00,NW,315,4.0,11.0,63,-99.99,,,-99.99,,2013-09-16 13:11:00,
2013-09-16 06:42:00,53.0,42.0,-100.00,WNW,300,4.0,7.0,65,-99.99,,,-99.99,,2013-09-16 13:42:00,
2013-09-16 06:52:00,53.0,42.0,-100.00,NW,305,1.0,7.0,66,-99.99,,,-99.99,,2013-09-16 13:52:00,
2013-09-16 07:11:00,52.0,42.0,-100.00,NE,35,0.0,3.0,68,-99.99,,,-99.99,,2013-09-16 14:11:00,
2013-09-16 07:21:00,51.0,41.0,-100.00,North,350,2.0,6.0,70,-99.99,,,-99.99,,2013-09-16 14:21:00,
2013-09-16 07:42:00,51.0,41.0,-100.00,North,0,0.0,4.0,71,-99.99,,,-99.99,,2013-09-16 14:42:00,
2013-09-16 08:11:00,50.0,42.0,-100.00,NNW,345,0.0,3.0,74,-99.99,,,-99.99,,2013-09-16 15:11:00,
2013-09-16 08:43:00,54.0,42.0,-100.00,WNW,285,2.0,4.0,64,-99.99,,,-99.99,,2013-09-16 15:43:00,
2013-09-16 09:12:00,58.0,43.0,-100.00,NNW,330,2.0,7.0,56,-99.99,,,-99.99,,2013-09-16 16:12:00,
2013-09-16 09:43:00,59.0,43.0,-100.00,WNW,300,6.0,11.0,56,-99.99,,,-99.99,,2013-09-16 16:43:00,
2013-09-16 09:52:00,59.0,43.0,-100.00,WNW,290,5.0,11.0,56,-99.99,,,-99.99,,2013-09-16 16:52:00,
2013-09-16 10:02:00,59.0,43.0,-100.00,WNW,290,5.0,11.0,56,-99.99,,,-99.99,,2013-09-16 17:02:00,
2013-09-16 11:22:00,67.0,45.0,-100.00,NNW,335,7.0,10.0,46,-99.99,,,-99.99,,2013-09-16 18:22:00,
2013-09-16 11:42:00,67.0,44.0,-100.00,NNW,340,4.0,9.0,43,-99.99,,,-99.99,,2013-09-16 18:42:00,
2013-09-16 12:22:00,69.0,44.0,-100.00,WNW,285,2.0,11.0,40,-99.99,,,-99.99,,2013-09-16 19:22:00,
2013-09-16 12:42:00,71.0,44.0,-100.00,North,0,2.0,9.0,37,-99.99,,,-99.99,,2013-09-16 19:42:00,
2013-09-16 12:53:00,73.0,45.0,-100.00,North,0,4.0,8.0,36,-99.99,,,-99.99,,2013-09-16 19:53:00,
2013-09-16 13:03:00,73.0,45.0,-100.00,North,0,4.0,8.0,36,-99.99,,,-99.99,,2013-09-16 20:03:00,
2013-09-16 13:22:00,72.0,44.0,-100.00,SSW,200,4.0,7.0,36,-99.99,,,-99.99,,2013-09-16 20:22:00,
2013-09-16 13:32:00,72.0,44.0,-100.00,SSW,200,4.0,7.0,36,-99.99,,,-99.99,,2013-09-16 20:32:00,
2013-09-16 13:52:00,74.0,43.0,-100.00,ESE,120,4.0,9.0,33,-99.99,,,-99.99,,2013-09-16 20:52:00,
2013-09-16 14:11:00,74.0,43.0,-100.00,SSW,200,6.0,12.0,32,-99.99,,,-99.99,,2013-09-16 21:11:00,
2013-09-16 14:44:00,74.0,41.0,-100.00,East,80,6.0,14.0,30,-99.99,,,-99.99,,2013-09-16 21:44:00,
2013-09-16 14:55:00,76.0,41.0,-100.00,ESE,105,4.0,12.0,29,-99.99,,,-99.99,,2013-09-16 21:55:00,
2013-09-16 15:04:00,76.0,41.0,-100.00,ESE,105,4.0,12.0,29,-99.99,,,-99.99,,2013-09-16 22:04:00,
2013-09-16 15:42:00,78.0,41.0,-100.00,ESE,105,1.0,11.0,27,-99.99,,,-99.99,,2013-09-16 22:42:00,
2013-09-16 16:12:00,75.0,39.0,-100.00,East,100,1.0,9.0,27,-99.99,,,-99.99,,2013-09-16 23:12:00,
2013-09-16 16:43:00,75.0,40.0,-100.00,SE,135,1.0,4.0,28,-99.99,,,-99.99,,2013-09-16 23:43:00,
2013-09-16 16:52:00,74.0,39.0,-100.00,South,190,1.0,4.0,28,-99.99,,,-99.99,,2013-09-16 23:52:00,
2013-09-16 17:11:00,74.0,39.0,-100.00,SSE,160,1.0,5.0,28,-99.99,,,-99.99,,2013-09-17 00:11:00,
2013-09-16 17:21:00,74.0,39.0,-100.00,ESE,115,2.0,7.0,28,-99.99,,,-99.99,,2013-09-17 00:21:00,
2013-09-16 17:32:00,74.0,39.0,-100.00,ESE,115,2.0,7.0,28,-99.99,,,-99.99,,2013-09-17 00:32:00,
2013-09-16 18:42:00,73.0,39.0,-100.00,SSE,160,2.0,6.0,29,-99.99,,,-99.99,,2013-09-17 01:42:00,
2013-09-16 19:42:00,70.0,38.0,-100.00,ESE,105,3.0,6.0,31,-99.99,,,-99.99,,2013-09-17 02:42:00,
2013-09-16 19:52:00,69.0,38.0,-100.00,South,185,0.0,7.0,32,-99.99,,,-99.99,,2013-09-17 02:52:00,
2013-09-16 20:02:00,69.0,38.0,-100.00,South,185,0.0,7.0,32,-99.99,,,-99.99,,2013-09-17 03:02:00,
2013-09-16 20:54:00,67.0,38.0,-100.00,NNW,330,5.0,11.0,34,-99.99,,,-99.99,,2013-09-17 03:54:00,
2013-09-16 21:04:00,67.0,38.0,-100.00,NNW,330,5.0,11.0,34,-99.99,,,-99.99,,2013-09-17 04:04:00,
2013-09-16 21:44:00,66.0,37.0,-100.00,NNW,330,10.0,17.0,34,-99.99,,,-99.99,,2013-09-17 04:44:00,
2013-09-16 21:53:00,65.0,37.0,-100.00,NNW,330,12.0,17.0,35,-99.99,,,-99.99,,2013-09-17 04:53:00,
2013-09-16 22:03:00,65.0,37.0,-100.00,NNW,330,12.0,17.0,35,-99.99,,,-99.99,,2013-09-17 05:03:00,
2013-09-16 22:42:00,63.0,36.0,-100.00,WNW,300,4.0,13.0,37,-99.99,,,-99.99,,2013-09-17 05:42:00,
2013-09-16 22:52:00,62.0,36.0,-100.00,NW,325,7.0,13.0,38,-99.99,,,-99.99,,2013-09-17 05:52:00,
2013-09-16 23:12:00,62.0,36.0,-100.00,NW,320,6.0,11.0,39,-99.99,,,-99.99,,2013-09-17 06:12:00,